Location: Cossonay
(46.5833°N, 6.4167°E)
Time: 21:41:08
(UTC+00:00)

CBERS-1 - Pass Details

Date: 09 October 2020
Orbit: 770 x 777 km, 98.6° (Epoch: 22 October)

Event Time Altitude Azimuth Distance (km) Brightness Sun altitude
Rises 02:13:59 0° 12° (NNE) 3,261 7.8 -35.4°
Reaches altitude 10° 02:16:18 10° 10° (N) 2,331 6.9 -35.1°
Enters shadow 02:18:09 23° 7° (N) 1,620 5.9 -34.8°
